SP1ZPL-13 Weather Reports


time (UTC)temp
F
wind
direction
speed
knots
gust
knots
rain 1hr
in
rain 24hr
in
rain mn
in
humidity
%
barometer
mb
20260507052025 44 331 4.3 10.4 0.00 0.21 0.00 90 1012.1
20260507051022 44 206 3.5 10.4 0.00 0.22 0.00 90 1012.0
20260507050020 45 157 4.3 9.6 0.00 0.25 0.00 90 1012.0
20260507045017 45 10 5.2 10.4 0.00 0.26 0.00 89 1011.9
20260507044015 45 5 2.6 10.4 0.00 0.27 0.00 89 1011.6
20260507043028 45 55 2.6 6.1 0.00 0.30 0.00 88 1011.5
20260507042025 45 218 3.5 12.2 0.00 0.30 0.00 88 1011.2
20260507041023 45 25 2.6 6.1 0.00 0.32 0.00 89 1011.3
20260507040040 45 359 3.5 7.8 0.00 0.33 0.00 88 1011.1
20260507035017 45 254 2.6 5.2 0.00 0.34 0.00 88 1011.0
20260507034015 45 22 2.6 6.1 0.00 0.34 0.00 87 1011.0
20260507033048 45 54 1.7 3.5 0.00 0.34 0.00 86 1010.9
20260507032025 45 13 1.7 4.3 0.00 0.34 0.00 86 1010.8
20260507031043 45 16 1.7 3.5 0.00 0.34 0.00 86 1010.7
20260507030020 45 59 2.6 7.0 0.00 0.34 0.00 86 1010.7
20260507025018 45 288 3.5 9.6 0.00 0.34 0.00 86 1010.7
20260507024016 45 323 4.3 9.6 0.00 0.34 0.00 86 1010.7
20260507023028 45 356 4.3 12.2 0.00 0.34 0.00 86 1010.6
20260507022025 45 324 4.3 9.6 0.00 0.34 0.00 87 1010.6
20260507021043 45 33 5.2 11.3 0.00 0.34 0.00 89 1010.6
20260507020021 45 86 1.7 7.0 0.00 0.34 0.00 90 1010.5
20260507015018 45 330 4.3 10.4 0.00 0.34 0.00 90 1010.5
20260507014015 45 331 2.6 9.6 0.00 0.34 0.00 90 1010.4
20260507013028 44 0 4.3 9.6 0.00 0.34 0.00 91 1010.2
20260507012026 44 344 2.6 7.0 0.00 0.34 0.00 91 1010.2
20260507011023 44 94 1.7 3.5 0.00 0.34 0.00 91 1010.1
20260507010021 44 164 2.6 7.8 0.00 0.34 0.00 91 1009.9
20260507005018 45 162 1.7 4.3 0.00 0.34 0.00 91 1009.9
20260507004015 45 93 2.6 9.6 0.00 0.34 0.00 91 1009.9
20260507003028 45 338 1.7 4.3 0.00 0.34 0.00 91 1010.2
20260507002026 45 98 2.6 6.1 0.00 0.34 0.00 90 1010.2
20260507001024 45 26 1.7 4.3 0.00 0.34 0.00 90 1009.9
20260507000022 45 311 1.7 7.0 0.00 0.34 0.00 90 1009.9
20260506235018 45 18 3.5 8.7 0.00 0.34 0.00 91 1009.7
20260506234016 45 335 2.6 4.3 0.00 0.34 0.00 91 1009.6
20260506233028 45 70 1.7 4.3 0.00 0.34 0.00 91 1009.7
20260506232026 45 344 2.6 7.8 0.00 0.34 0.00 90 1009.6
20260506231023 45 39 1.7 5.2 0.00 0.34 0.00 90 1009.5
20260506230021 45 38 1.7 5.2 0.00 0.34 0.00 90 1009.7
20260506225018 45 9 2.6 8.7 0.00 0.34 0.00 90 1009.6
20260506224016 45 337 2.6 6.1 0.00 0.34 0.00 90 1009.7
20260506223049 45 313 2.6 6.1 0.00 0.34 0.00 90 1009.5
20260506222026 45 231 3.5 8.7 0.00 0.34 0.00 90 1009.5
20260506221044 45 318 2.6 11.3 0.00 0.34 0.00 90 1009.7
20260506220021 45 24 4.3 16.5 0.00 0.34 0.00 90 1009.6
20260506215018 45 331 5.2 14.8 0.00 0.34 0.34 91 1009.6
20260506214016 45 334 5.2 13.9 0.00 0.34 0.34 91 1009.6
20260506213029 45 15 2.6 6.1 0.00 0.34 0.34 91 1009.7
20260506212026 45 359 1.7 6.1 0.00 0.34 0.34 91 1009.6
20260506211024 45 359 2.6 7.8 0.00 0.34 0.34 91 1009.2
20260506210021 45 356 4.3 12.2 0.00 0.34 0.34 91 1009.1
20260506205019 45 358 2.6 12.2 0.00 0.34 0.34 90 1009.1
20260506204017 45 4 3.5 7.8 0.00 0.34 0.34 90 1008.9
20260506203029 45 95 2.6 9.6 0.00 0.34 0.34 90 1008.9
20260506202027 45 278 4.3 9.6 0.00 0.34 0.34 90 1008.8
20260506201044 45 349 3.5 12.2 0.00 0.34 0.34 90 1009.0
20260506200022 45 328 3.5 8.7 0.00 0.34 0.34 90 1008.7
20260506195019 45 317 2.6 9.6 0.00 0.34 0.34 90 1008.7
20260506194017 45 357 3.5 7.0 0.00 0.34 0.34 90 1008.7
20260506193050 45 15 1.7 4.3 0.00 0.34 0.34 90 1008.8
20260506192027 46 325 3.5 7.0 0.00 0.34 0.34 85 1008.9
20260506191025 46 304 5.2 11.3 0.00 0.34 0.34 85 1008.7
20260506190022 46 333 3.5 9.6 0.00 0.34 0.34 85 1008.5
20260506185039 46 323 2.6 7.0 0.00 0.34 0.34 84 1008.3
20260506184017 47 0 2.6 8.7 0.00 0.34 0.34 85 1008.4
20260506183030 47 89 4.3 13.0 0.00 0.34 0.34 85 1008.3
20260506182047 49 32 3.5 13.9 0.00 0.34 0.34 86 1008.1
20260506181025 49 354 3.5 7.0 0.00 0.34 0.34 86 1007.9
20260506180022 49 12 1.7 4.3 0.00 0.34 0.34 86 1007.5
20260506175020 50 320 1.7 6.1 0.00 0.34 0.34 87 1007.5
20260506174018 50 78 2.6 4.3 0.00 0.34 0.34 87 1007.6
20260506173015 50 164 3.5 7.8 0.00 0.34 0.34 89 1007.6
20260506172028 50 246 2.6 8.7 0.00 0.34 0.34 90 1007.6
20260506171025 50 293 3.5 7.8 0.00 0.34 0.34 90 1007.4
20260506170023 51 349 1.7 4.3 0.00 0.34 0.34 90 1007.4
20260506165020 51 16 1.7 4.3 0.00 0.34 0.34 90 1007.2
20260506164018 51 305 0.9 4.3 0.00 0.34 0.34 90 1007.0
20260506163015 51 38 0.9 2.6 0.00 0.34 0.34 90 1007.1
20260506162028 51 44 1.7 5.2 0.00 0.34 0.34 89 1007.1
20260506161045 51 36 0.9 2.6 0.00 0.34 0.34 89 1007.1
20260506160023 51 61 0.9 5.2 0.00 0.34 0.34 89 1007.1
20260506155020 51 84 1.7 3.5 0.00 0.34 0.34 89 1007.2
20260506154018 52 63 1.7 3.5 0.00 0.34 0.34 90 1007.1
20260506153015 52 185 1.7 4.3 0.00 0.34 0.34 89 1007.2
20260506152028 52 329 1.7 3.5 0.00 0.34 0.34 90 1007.2
20260506151025 52 99 1.7 3.5 0.00 0.34 0.34 90 1007.1
20260506150023 52 70 0.9 5.2 0.00 0.34 0.34 91 1007.0
20260506145020 52 33 1.7 5.2 0.00 0.34 0.34 91 1006.9
20260506144018 52 110 2.6 4.3 0.00 0.34 0.34 91 1006.8
20260506143015 52 251 1.7 3.5 0.00 0.34 0.34 92 1006.8
20260506142028 52 290 2.6 5.2 0.00 0.34 0.34 93 1006.8
20260506141025 52 1 1.7 3.5 0.00 0.34 0.34 94 1006.7
20260506140043 51 299 1.7 3.5 0.01 0.34 0.34 94 1006.8
20260506135021 51 20 2.6 7.8 0.01 0.34 0.34 95 1006.9
20260506134019 51 54 1.7 3.5 0.01 0.34 0.34 95 1006.9
20260506133016 50 64 0.9 3.5 0.01 0.34 0.34 95 1006.9
20260506132049 50 343 1.7 4.3 0.01 0.34 0.34 95 1006.8
20260506131026 49 315 2.6 7.0 0.01 0.34 0.34 95 1006.8
20260506130023 50 73 2.6 6.1 0.00 0.33 0.33 96 1006.8
20260506125021 50 80 1.7 6.1 0.00 0.33 0.33 96 1006.8
20260506124019 49 30 2.6 5.2 0.00 0.33 0.33 96 1006.8
20260506123016 50 2 1.7 3.5 0.00 0.33 0.33 97 1006.7
20260506122029 50 70 1.7 4.3 0.01 0.33 0.33 97 1006.5
20260506121026 50 8 4.3 11.3 0.01 0.33 0.33 97 1006.3
20260506120044 50 4 2.6 11.3 0.02 0.33 0.33 97 1006.1
20260506115021 50 354 2.6 6.1 0.02 0.33 0.33 97 1006.0
20260506114019 49 24 3.5 9.6 0.02 0.33 0.33 98 1006.1
20260506113016 50 48 1.7 4.3 0.02 0.33 0.33 98 1006.1
20260506112029 50 22 0.0 1.7 0.01 0.32 0.32 98 1006.0
20260506111026 50 309 1.7 3.5 0.02 0.32 0.32 98 1006.0
20260506110024 50 44 1.7 4.3 0.01 0.31 0.31 98 1005.9
20260506105021 50 70 0.9 3.5 0.02 0.31 0.31 98 1005.9
20260506104039 49 79 1.7 6.1 0.02 0.31 0.31 98 1005.8
20260506103017 49 285 3.5 7.8 0.02 0.31 0.31 98 1006.0
20260506102029 49 337 2.6 7.0 0.04 0.31 0.31 98 1005.9
20260506101027 49 358 2.6 7.0 0.02 0.31 0.30 98 1005.9
20260506100024 49 21 3.5 9.6 0.02 0.31 0.30 98 1005.8
20260506095022 49 99 2.6 4.3 0.02 0.30 0.28 98 1005.8
20260506094019 49 357 3.5 12.2 0.02 0.30 0.28 98 1005.7
20260506093017 49 237 2.6 7.0 0.02 0.30 0.28 98 1005.7
20260506092030 49 19 2.6 7.0 0.01 0.28 0.27 99 1005.6
20260506091027 50 65 1.7 7.0 0.01 0.28 0.27 99 1005.4
20260506090025 50 22 2.6 7.0 0.01 0.28 0.27 99 1005.5
20260506085022 50 49 2.6 7.0 0.01 0.27 0.26 99 1005.5
20260506084019 50 348 3.5 7.0 0.02 0.27 0.26 99 1005.3
20260506083017 50 8 2.6 5.2 0.02 0.27 0.26 99 1005.3
20260506082049 50 52 4.3 9.6 0.02 0.27 0.26 99 1005.4
20260506081028 50 30 4.3 9.6 0.02 0.28 0.26 99 1005.5
20260506073017 50 26 1.7 5.2 0.04 0.28 0.24 99 1005.5
20260506072050 50 15 4.3 8.7 0.05 0.30 0.24 99 1005.3
20260506071027 50 327 3.5 7.8 0.05 0.32 0.24 99 1005.2
20260506062015 49 230 2.6 7.0 0.06 0.32 0.19 97 1005.2
20260506061047 49 340 3.5 9.6 0.07 0.33 0.19 97 1005.4